313  
ASUS41 KRLX 181610  
RWRRLX  
WEST VIRGINIA REGIONAL WEATHER ROUNDUP  
NATIONAL WEATHER SERVICE CHARLESTON WV  
1200 PM EDT WED JUL 18 2018  
 
NOTE: "FAIR" INDICATES FEW OR NO CLOUDS BELOW 12,000 FEET WITH NO  
SIGNIFICANT WEATHER AND/OR S TO VISIBILITY
.  
 
WVZ003-181700-  
NORTHERN PANHANDLE OF WEST VIRGINIA  
 
CITY SKY/WX TMP DP RH WIND PRES REMARKS
 
WHEELING FAIR 73 54 51 N10 30.10S  

 
 
WVZ009-181700-  
NORTHWEST WEST VIRGINIA  
 
CITY SKY/WX TMP DP RH WIND PRES REMARKS
 
PARKERSBURG MOSUNNY N/A N/A N/A NE10 30.12  

 
 
WVZ006-181700-  
WESTERN WEST VIRGINIA  
 
CITY SKY/WX TMP DP RH WIND PRES REMARKS
 
HUNTINGTON FAIR 81 55 40 NE9 30.07S  

 
 
WVZ015-181700-  
WEST CENTRAL WEST VIRGINIA  
 
CITY SKY/WX TMP DP RH WIND PRES REMARKS
 
CHARLESTON FAIR 76 57 51 E8 30.08S  

 
 
WVZ022-031-181700-  
NORTH CENTRAL WEST VIRGINIA  
 
CITY SKY/WX TMP DP RH WIND PRES REMARKS
 
CLARKSBURG FAIR 78 53 41 N9 30.09S  
MORGANTOWN PTSUNNY 73 54 51 N9 30.10S  

 
 
WVZ025-035-042-045-181700-  
SOUTHERN WEST VIRGINIA  
 
CITY SKY/WX TMP DP RH WIND PRES REMARKS
 
BECKLEY FAIR 73 52 47 N10 30.13S  
LOGAN FAIR 77 55 47 E8G14 30.09F  
BLUEFIELD NOT AVBL  
LEWISBURG FAIR 73 51 44 N6 30.11F  

 
 
WVZ047-181700-  
NORTHERN MOUNTAINS OF WEST VIRGINIA  
 
CITY SKY/WX TMP DP RH WIND PRES REMARKS
 
ELKINS FAIR 72 51 47 N8 30.12S  

 
 
WVZ052-181700-  
EASTERN PANHANDLE OF WEST VIRGINIA  
 
CITY SKY/WX TMP DP RH WIND PRES REMARKS
 
MARTINSBURG FAIR 79 58 48 NW12G30 30.01F  
PETERSBURG FAIR 76 56 50 NE5 30.05F  

 
 
 
CLICK HERE TO GO TO PREVIOUS BULLETINS.

The Nexlab WV Page
The Nexlab OH Page
The Nexlab KY Page
The Nexlab VA Page Main Text Page